Mansfield, OH

1:06 PM EST on December 03, 2016 (GMT -0500)
Mansfield Lahm Regional

Weather History for KMFD - March, 2014

Change the Weather History Date:

Friday, March 21, 2014

  Actual Average Record
Temperature  
Mean Temperature 38 °F 39 °F  
Max Temperature 53 °F 48 °F 82 °F (2012)
Min Temperature 23 °F 30 °F 12 °F (1986)
Degree Days  
Heating Degree Days 27 26  
Month to date heating degree days 714 626  
Since 1 July heating degree days 5758 5251  
Cooling Degree Days 0 0  
Month to date cooling degree days 0 0  
Year to date cooling degree days 0 0  
Moisture  
Dew Point 30 °F    
Average Humidity 77    
Maximum Humidity 100    
Minimum Humidity 54    
Precipitation  
Precipitation 0.02 in 0.12 in 1.33 in (1955)
Month to date precipitation 1.26 2.15  
Year to date precipitation 5.59 7.41  
Snow  
Snow 0.20 in 0.20 in - ()
Month to date snowfall 6.5 6.1  
Since 1 July snowfall 59.3 44.0  
Snow Depth 0.00 in    
Sea Level Pressure  
Sea Level Pressure 30.01 in    
Wind  
Wind Speed 7 mph (SE)    
Max Wind Speed 17 mph    
Max Gust Speed 25 mph    
Visibility 7 miles    
Events Snow    
T = Trace of Precipitation, MM = Missing Value Source: NWS Daily Summary

Daily Weather History Graph

Daily Weather History Graph

Search for Another Location

Airport or City:

Trip Planner

Search our weather history database for the weather conditions in past years. The results will help you decide how hot, cold, wet, or windy it might be!

Date:

Astronomy

Mar. 21, 2014 Rise Set
Actual Time 7:31 AM EDT 7:43 PM EDT
Civil Twilight 7:04 AM EDT 8:10 PM EDT
Nautical Twilight 6:32 AM EDT 8:42 PM EDT
Astronomical Twilight 5:59 AM EDT 9:15 PM EDT
Moon 12:02 AM EDT (3/21) 10:20 AM EDT (3/21)
Length of Visible Light 13h 06m
Length of Day
12h 11m
Waning Gibbous, 75% of the Moon is Illuminated
Mar 21
Waning Gibbous
Mar 23
Last Quarter
Mar 30
New
Apr 7
First Quarter
Apr 15
Full

Hourly Weather History & Observations

Time (EDT) Temp. Windchill Dew Point Humidity Pressure Visibility Wind Dir Wind Speed Gust Speed Precip Events Conditions
12:52 AM 30.0 °F 25.2 °F 24.1 °F 79% 30.07 in 10.0 mi NW 4.6 mph - N/A   Clear
1:52 AM 30.0 °F 25.2 °F 26.1 °F 85% 30.07 in 10.0 mi NW 4.6 mph - N/A   Clear
2:52 AM 28.9 °F - 25.0 °F 85% 30.07 in 10.0 mi Calm Calm - N/A   Clear
3:52 AM 26.1 °F - 23.0 °F 88% 30.07 in 9.0 mi Calm Calm - N/A   Clear
4:52 AM 23.0 °F - 21.9 °F 96% 30.07 in 6.0 mi Calm Calm - N/A   Clear
5:52 AM 24.1 °F 19.7 °F 21.9 °F 91% 30.08 in 6.0 mi South 3.5 mph - N/A   Clear
6:52 AM 27.0 °F - 26.1 °F 96% 30.08 in 6.0 mi Calm Calm - N/A   Overcast
7:52 AM 28.9 °F 22.8 °F 26.1 °F 89% 30.07 in 2.5 mi ESE 5.8 mph - 0.00 in Snow Light Snow
8:10 AM 28.4 °F 22.2 °F 26.6 °F 93% 30.03 in 0.8 mi SE 5.8 mph - 0.00 in Snow Light Snow
8:42 AM 28.4 °F 22.2 °F 26.6 °F 93% 30.04 in 1.5 mi SSE 5.8 mph - 0.01 in Snow Light Snow
8:48 AM 28.4 °F 23.3 °F 28.4 °F 100% 30.04 in 2.0 mi SE 4.6 mph - 0.01 in Snow Light Snow
8:52 AM 28.9 °F 25.2 °F 27.0 °F 92% 30.08 in 2.0 mi SE 3.5 mph - 0.01 in Snow Light Snow
9:06 AM 28.4 °F 23.3 °F 28.4 °F 100% 30.05 in 1.8 mi SE 4.6 mph - 0.01 in Snow Light Snow
9:14 AM 28.4 °F 23.3 °F 28.4 °F 100% 30.05 in 2.5 mi SE 4.6 mph - 0.01 in Snow Light Snow
9:33 AM 28.4 °F 22.2 °F 26.6 °F 93% 30.05 in 4.0 mi SE 5.8 mph - 0.01 in   Overcast
9:52 AM 30.0 °F 25.2 °F 28.0 °F 92% 30.11 in 4.0 mi SSE 4.6 mph - 0.01 in Snow Light Snow
10:40 AM 30.2 °F 24.3 °F 28.4 °F 93% 30.06 in 6.0 mi ESE 5.8 mph - 0.00 in   Overcast
10:52 AM 30.9 °F 23.5 °F 28.0 °F 89% 30.09 in 8.0 mi SE 8.1 mph - 0.00 in   Overcast
11:52 AM 35.1 °F 29.3 °F 30.0 °F 82% 30.08 in 10.0 mi East 6.9 mph - N/A   Mostly Cloudy
12:52 PM 39.0 °F 33.4 °F 33.1 °F 79% 30.06 in 10.0 mi East 8.1 mph - N/A   Clear
1:52 PM 42.1 °F 37.1 °F 34.0 °F 73% 30.04 in 10.0 mi East 8.1 mph - N/A   Clear
2:52 PM 46.0 °F 42.5 °F 36.0 °F 68% 30.00 in 10.0 mi SSE 6.9 mph - N/A   Clear
3:52 PM 48.9 °F - 36.0 °F 61% 29.97 in 10.0 mi East 12.7 mph - N/A   Clear
4:52 PM 51.1 °F - 35.1 °F 54% 29.95 in 10.0 mi SSE 6.9 mph - N/A   Clear
5:52 PM 52.0 °F - 35.1 °F 53% 29.92 in 10.0 mi SE 9.2 mph - N/A   Clear
6:52 PM 50.0 °F - 35.1 °F 57% 29.88 in 10.0 mi ESE 10.4 mph - N/A   Clear
7:52 PM 45.0 °F 39.7 °F 35.1 °F 68% 29.87 in 10.0 mi ESE 10.4 mph - N/A   Clear
8:52 PM 45.0 °F 39.7 °F 35.1 °F 68% 29.86 in 10.0 mi SE 10.4 mph - N/A   Clear
9:52 PM 46.0 °F 40.6 °F 35.1 °F 66% 29.85 in 10.0 mi SE 11.5 mph - N/A   Partly Cloudy
10:52 PM 46.9 °F - 35.1 °F 63% 29.81 in 10.0 mi SSE 11.5 mph - N/A   Partly Cloudy
11:52 PM 46.9 °F - 34.0 °F 61% 29.78 in 10.0 mi SSE 11.5 mph - N/A   Clear